| time (UTC) | temp F | wind direction | speed MPH | gust MPH | rain 1hr in | rain 24hr in | rain mn in | humidity % | barometer mb |
| 20260504150103 | 76 | 0.0 | 0.0 | 0.00 | 0.00 | 0.00 | 79 | 852.2 | |
| 20260504141103 | 77 | 0.0 | 0.0 | 0.00 | 0.00 | 0.00 | 79 | 852.2 | |
| 20260504140602 | 77 | 0.0 | 0.0 | 0.00 | 0.00 | 0.00 | 78 | 852.2 | |
| 20260504130600 | 76 | 0.0 | 0.0 | 0.00 | 0.00 | 0.00 | 78 | 852.2 | |
| 20260504110557 | 77 | 0.0 | 0.0 | 0.00 | 0.00 | 0.00 | 78 | 850.8 | |
| 20260504100555 | 77 | 0.0 | 0.0 | 0.00 | 0.00 | 0.00 | 80 | 850.8 | |
| 20260504081552 | 78 | 0.0 | 0.0 | 0.00 | 0.00 | 0.00 | 78 | 850.7 | |
| 20260504081052 | 77 | 0.0 | 0.0 | 0.00 | 0.00 | 0.00 | 78 | 850.7 | |
| 20260504080551 | 77 | 0.0 | 0.0 | 0.00 | 0.00 | 0.00 | 78 | 850.8 | |
| 20260504050546 | 77 | 0.0 | 0.0 | 0.00 | 0.00 | 0.00 | 79 | 851.9 | |
| 20260504045546 | 78 | 0.0 | 0.0 | 0.00 | 0.00 | 0.00 | 77 | 851.7 | |
| 20260504045046 | 78 | 0.0 | 0.0 | 0.00 | 0.00 | 0.00 | 77 | 851.7 | |
| 20260504044546 | 78 | 0.0 | 0.0 | 0.00 | 0.00 | 0.00 | 77 | 851.8 | |
| 20260504044046 | 78 | 0.0 | 0.0 | 0.00 | 0.00 | 0.00 | 77 | 851.7 | |
| 20260504043545 | 78 | 0.0 | 0.0 | 0.00 | 0.00 | 0.00 | 76 | 851.6 | |
| 20260504043045 | 78 | 0.0 | 0.0 | 0.00 | 0.00 | 0.00 | 77 | 851.5 | |
| 20260504042545 | 78 | 0.0 | 0.0 | 0.00 | 0.00 | 0.00 | 77 | 851.5 | |
| 20260504042046 | 77 | 0.0 | 0.0 | 0.00 | 0.00 | 0.00 | 78 | 851.4 | |
| 20260504041545 | 77 | 0.0 | 0.0 | 0.00 | 0.00 | 0.00 | 78 | 851.4 | |
| 20260504041045 | 77 | 0.0 | 0.0 | 0.00 | 0.00 | 0.00 | 78 | 851.4 | |
| 20260504040545 | 77 | 0.0 | 0.0 | 0.00 | 0.00 | 0.00 | 78 | 851.4 | |
| 20260504040046 | 77 | 0.0 | 0.0 | 0.00 | 0.00 | 0.00 | 78 | 851.3 | |
| 20260504035544 | 77 | 0.0 | 0.0 | 0.00 | 0.00 | 0.00 | 79 | 851.3 | |
| 20260504035044 | 77 | 0.0 | 0.0 | 0.00 | 0.00 | 0.00 | 78 | 851.4 | |
| 20260504034544 | 78 | 0.0 | 0.0 | 0.00 | 0.00 | 0.00 | 76 | 851.5 | |
| 20260504034044 | 77 | 0.0 | 0.0 | 0.00 | 0.00 | 0.00 | 78 | 851.4 | |
| 20260504033544 | 77 | 0.0 | 0.0 | 0.00 | 0.00 | 0.00 | 79 | 851.4 | |
| 20260504033044 | 77 | 0.0 | 0.0 | 0.00 | 0.00 | 0.00 | 79 | 851.4 | |
| 20260504032545 | 77 | 0.0 | 0.0 | 0.00 | 0.00 | 0.00 | 79 | 851.4 | |
| 20260504032043 | 77 | 0.0 | 0.0 | 0.00 | 0.00 | 0.00 | 79 | 851.5 | |
| 20260504031543 | 77 | 0.0 | 0.0 | 0.00 | 0.00 | 0.00 | 79 | 851.4 | |
| 20260504031044 | 78 | 0.0 | 0.0 | 0.00 | 0.00 | 0.00 | 77 | 851.3 | |
| 20260504030543 | 77 | 0.0 | 0.0 | 0.00 | 0.00 | 0.00 | 78 | 851.3 | |
| 20260504030043 | 77 | 0.0 | 0.0 | 0.00 | 0.00 | 0.00 | 78 | 851.3 | |
| 20260504025543 | 77 | 0.0 | 0.0 | 0.00 | 0.00 | 0.00 | 78 | 851.4 | |
| 20260504025043 | 77 | 0.0 | 0.0 | 0.00 | 0.00 | 0.00 | 78 | 851.3 | |
| 20260504024542 | 77 | 0.0 | 0.0 | 0.00 | 0.00 | 0.00 | 78 | 851.3 | |
| 20260504024042 | 77 | 0.0 | 0.0 | 0.00 | 0.00 | 0.00 | 78 | 851.2 | |
| 20260504023542 | 77 | 0.0 | 0.0 | 0.00 | 0.00 | 0.00 | 78 | 851.2 | |
| 20260504023042 | 77 | 0.0 | 0.0 | 0.00 | 0.00 | 0.00 | 76 | 851.3 | |
| 20260504022542 | 77 | 0.0 | 0.0 | 0.00 | 0.00 | 0.00 | 79 | 851.4 | |
| 20260504022042 | 77 | 0.0 | 0.0 | 0.00 | 0.00 | 0.00 | 79 | 851.4 | |
| 20260504021542 | 77 | 0.0 | 0.0 | 0.00 | 0.00 | 0.00 | 79 | 851.3 | |
| 20260504021041 | 77 | 0.0 | 0.0 | 0.00 | 0.00 | 0.00 | 79 | 851.2 | |
| 20260504020541 | 77 | 0.0 | 0.0 | 0.00 | 0.00 | 0.00 | 79 | 851.2 | |
| 20260504020041 | 77 | 0.0 | 0.0 | 0.00 | 0.00 | 0.00 | 79 | 851.1 | |
| 20260504015541 | 77 | 0.0 | 0.0 | 0.00 | 0.00 | 0.00 | 78 | 851.1 | |
| 20260504015041 | 77 | 0.0 | 0.0 | 0.00 | 0.00 | 0.00 | 77 | 851.0 | |
| 20260504014541 | 77 | 0.0 | 0.0 | 0.00 | 0.00 | 0.00 | 77 | 850.9 | |
| 20260504014041 | 77 | 0.0 | 0.0 | 0.00 | 0.00 | 0.00 | 76 | 850.8 | |
| 20260504013540 | 77 | 0.0 | 0.0 | 0.00 | 0.00 | 0.00 | 76 | 850.7 | |
| 20260504013155 | 77 | 0.0 | 0.0 | 0.00 | 0.00 | 0.00 | 76 | 850.7 | |
| 20260504012540 | 77 | 0.0 | 0.0 | 0.00 | 0.00 | 0.00 | 76 | 850.6 | |
| 20260504012040 | 78 | 0.0 | 0.0 | 0.00 | 0.00 | 0.00 | 75 | 850.6 | |
| 20260504011540 | 78 | 0.0 | 0.0 | 0.00 | 0.00 | 0.00 | 75 | 850.4 | |
| 20260504011055 | 77 | 0.0 | 0.0 | 0.00 | 0.00 | 0.00 | 75 | 850.3 | |
| 20260504010549 | 77 | 0.0 | 0.0 | 0.00 | 0.00 | 0.00 | 75 | 850.1 | |
| 20260504010047 | 77 | 0.0 | 0.0 | 0.00 | 0.00 | 0.00 | 75 | 850.1 | |
| 20260504005539 | 77 | 0.0 | 0.0 | 0.00 | 0.00 | 0.00 | 75 | 850.0 | |
| 20260504005039 | 77 | 0.0 | 0.0 | 0.00 | 0.00 | 0.00 | 75 | 850.0 | |
| 20260504004540 | 77 | 0.0 | 0.0 | 0.00 | 0.00 | 0.00 | 75 | 850.0 | |
| 20260504004039 | 77 | 0.0 | 0.0 | 0.00 | 0.00 | 0.00 | 75 | 849.9 | |
| 20260504003539 | 77 | 0.0 | 0.0 | 0.00 | 0.00 | 0.00 | 74 | 849.8 | |
| 20260504003039 | 77 | 0.0 | 0.0 | 0.00 | 0.00 | 0.00 | 74 | 849.7 | |
| 20260504002538 | 77 | 0.0 | 0.0 | 0.00 | 0.00 | 0.00 | 74 | 849.6 | |
| 20260504002038 | 77 | 0.0 | 0.0 | 0.00 | 0.00 | 0.00 | 74 | 849.4 | |
| 20260504001538 | 77 | 0.0 | 0.0 | 0.00 | 0.00 | 0.00 | 74 | 849.4 | |
| 20260504001039 | 77 | 0.0 | 0.0 | 0.00 | 0.00 | 0.00 | 74 | 849.4 | |
| 20260504000538 | 77 | 0.0 | 0.0 | 0.00 | 0.00 | 0.00 | 74 | 849.5 | |
| 20260504000038 | 77 | 0.0 | 0.0 | 0.00 | 0.00 | 0.00 | 73 | 849.4 | |
| 20260503235537 | 77 | 0.0 | 0.0 | 0.00 | 0.00 | 0.00 | 73 | 849.4 | |
| 20260503235037 | 77 | 0.0 | 0.0 | 0.00 | 0.00 | 0.00 | 73 | 849.3 | |
| 20260503234537 | 77 | 0.0 | 0.0 | 0.00 | 0.00 | 0.00 | 73 | 849.1 | |
| 20260503234039 | 77 | 0.0 | 0.0 | 0.00 | 0.00 | 0.00 | 72 | 849.1 | |
| 20260503233537 | 77 | 0.0 | 0.0 | 0.00 | 0.00 | 0.00 | 72 | 849.0 | |
| 20260503233037 | 77 | 0.0 | 0.0 | 0.00 | 0.00 | 0.00 | 72 | 848.9 | |
| 20260503232537 | 77 | 0.0 | 0.0 | 0.00 | 0.00 | 0.00 | 70 | 848.8 | |
| 20260503232037 | 77 | 0.0 | 0.0 | 0.00 | 0.00 | 0.00 | 70 | 848.7 | |
| 20260503231536 | 77 | 0.0 | 0.0 | 0.00 | 0.00 | 0.00 | 71 | 848.7 | |
| 20260503231036 | 77 | 0.0 | 0.0 | 0.00 | 0.00 | 0.00 | 71 | 848.6 | |
| 20260503230536 | 77 | 0.0 | 0.0 | 0.00 | 0.00 | 0.00 | 70 | 848.5 | |
| 20260503230036 | 77 | 0.0 | 0.0 | 0.00 | 0.00 | 0.00 | 69 | 848.5 | |
| 20260503225536 | 77 | 0.0 | 0.0 | 0.00 | 0.00 | 0.00 | 68 | 848.5 | |
| 20260503225037 | 78 | 0.0 | 0.0 | 0.00 | 0.00 | 0.00 | 68 | 848.4 | |
| 20260503224536 | 78 | 0.0 | 0.0 | 0.00 | 0.00 | 0.00 | 67 | 848.3 | |
| 20260503224035 | 77 | 0.0 | 0.0 | 0.00 | 0.00 | 0.00 | 67 | 848.2 | |
| 20260503223535 | 77 | 0.0 | 0.0 | 0.00 | 0.00 | 0.00 | 67 | 848.0 | |
| 20260503223036 | 77 | 0.0 | 0.0 | 0.00 | 0.00 | 0.00 | 66 | 847.9 | |
| 20260503222817 | 77 | 0.0 | 0.0 | 0.00 | 0.00 | 0.00 | 66 | 847.8 | |
| 20260503222043 | 77 | 0.0 | 0.0 | 0.00 | 0.00 | 0.00 | 65 | 847.7 | |
| 20260503221535 | 78 | 0.0 | 0.0 | 0.00 | 0.00 | 0.00 | 63 | 847.7 | |
| 20260503221139 | 78 | 0.0 | 0.0 | 0.00 | 0.00 | 0.00 | 62 | 847.6 | |
| 20260503220546 | 78 | 0.0 | 0.0 | 0.00 | 0.00 | 0.00 | 63 | 847.6 | |
| 20260503220034 | 78 | 0.0 | 0.0 | 0.00 | 0.00 | 0.00 | 63 | 847.5 | |
| 20260503215534 | 78 | 0.0 | 0.0 | 0.00 | 0.00 | 0.00 | 63 | 847.6 | |
| 20260503215034 | 78 | 0.0 | 0.0 | 0.00 | 0.00 | 0.00 | 63 | 847.5 | |
| 20260503214534 | 78 | 0.0 | 0.0 | 0.00 | 0.00 | 0.00 | 63 | 847.5 | |
| 20260503214034 | 78 | 0.0 | 0.0 | 0.00 | 0.00 | 0.00 | 62 | 847.5 | |
| 20260503213534 | 78 | 0.0 | 0.0 | 0.00 | 0.00 | 0.00 | 62 | 847.5 | |
| 20260503213033 | 78 | 0.0 | 0.0 | 0.00 | 0.00 | 0.00 | 62 | 847.5 | |
| 20260503212534 | 78 | 0.0 | 0.0 | 0.00 | 0.00 | 0.00 | 62 | 847.5 | |
| 20260503212033 | 78 | 0.0 | 0.0 | 0.00 | 0.00 | 0.00 | 62 | 847.4 | |
| 20260503211533 | 78 | 0.0 | 0.0 | 0.00 | 0.00 | 0.00 | 62 | 847.5 | |
| 20260503211033 | 78 | 0.0 | 0.0 | 0.00 | 0.00 | 0.00 | 61 | 847.5 | |
| 20260503210533 | 78 | 0.0 | 0.0 | 0.00 | 0.00 | 0.00 | 60 | 847.6 | |
| 20260503210033 | 79 | 0.0 | 0.0 | 0.00 | 0.00 | 0.00 | 60 | 847.6 | |
| 20260503205532 | 78 | 0.0 | 0.0 | 0.00 | 0.00 | 0.00 | 61 | 847.7 | |
| 20260503205032 | 78 | 0.0 | 0.0 | 0.00 | 0.00 | 0.00 | 60 | 847.8 | |
| 20260503204532 | 78 | 0.0 | 0.0 | 0.00 | 0.00 | 0.00 | 59 | 847.8 | |
| 20260503204032 | 78 | 0.0 | 0.0 | 0.00 | 0.00 | 0.00 | 60 | 847.8 | |
| 20260503203532 | 79 | 0.0 | 0.0 | 0.00 | 0.00 | 0.00 | 60 | 847.8 | |
| 20260503203032 | 79 | 0.0 | 0.0 | 0.00 | 0.00 | 0.00 | 60 | 847.9 | |
| 20260503202532 | 79 | 0.0 | 0.0 | 0.00 | 0.00 | 0.00 | 60 | 847.9 | |
| 20260503202031 | 79 | 0.0 | 0.0 | 0.00 | 0.00 | 0.00 | 60 | 848.0 | |
| 20260503201531 | 78 | 0.0 | 0.0 | 0.00 | 0.00 | 0.00 | 61 | 848.0 | |
| 20260503201031 | 78 | 0.0 | 0.0 | 0.00 | 0.00 | 0.00 | 63 | 848.1 | |
| 20260503200531 | 78 | 0.0 | 0.0 | 0.00 | 0.00 | 0.00 | 63 | 848.2 | |
| 20260503200031 | 78 | 0.0 | 0.0 | 0.00 | 0.00 | 0.00 | 62 | 848.2 | |
| 20260503195531 | 78 | 0.0 | 0.0 | 0.00 | 0.00 | 0.00 | 62 | 848.3 | |
| 20260503195031 | 79 | 0.0 | 0.0 | 0.00 | 0.00 | 0.00 | 61 | 848.4 | |
| 20260503194530 | 79 | 0.0 | 0.0 | 0.00 | 0.00 | 0.00 | 60 | 848.4 | |
| 20260503194030 | 79 | 0.0 | 0.0 | 0.00 | 0.00 | 0.00 | 60 | 848.6 | |
| 20260503193530 | 79 | 0.0 | 0.0 | 0.00 | 0.00 | 0.00 | 60 | 848.6 | |
| 20260503193030 | 79 | 0.0 | 0.0 | 0.00 | 0.00 | 0.00 | 60 | 848.6 | |
| 20260503192530 | 78 | 0.0 | 0.0 | 0.00 | 0.00 | 0.00 | 61 | 848.7 | |
| 20260503192030 | 79 | 0.0 | 0.0 | 0.00 | 0.00 | 0.00 | 60 | 848.8 | |
| 20260503191530 | 79 | 0.0 | 0.0 | 0.00 | 0.00 | 0.00 | 60 | 848.7 | |
| 20260503191029 | 79 | 0.0 | 0.0 | 0.00 | 0.00 | 0.00 | 60 | 848.9 | |
| 20260503190529 | 79 | 0.0 | 0.0 | 0.00 | 0.00 | 0.00 | 60 | 849.0 | |
| 20260503190029 | 79 | 0.0 | 0.0 | 0.00 | 0.00 | 0.00 | 61 | 848.9 | |
| 20260503185529 | 79 | 0.0 | 0.0 | 0.00 | 0.00 | 0.00 | 59 | 849.0 | |
| 20260503185141 | 79 | 0.0 | 0.0 | 0.00 | 0.00 | 0.00 | 60 | 849.1 | |
| 20260503184529 | 79 | 0.0 | 0.0 | 0.00 | 0.00 | 0.00 | 61 | 849.2 | |
| 20260503184029 | 79 | 0.0 | 0.0 | 0.00 | 0.00 | 0.00 | 60 | 849.3 | |
| 20260503183529 | 79 | 0.0 | 0.0 | 0.00 | 0.00 | 0.00 | 60 | 849.4 | |
| 20260503183028 | 79 | 0.0 | 0.0 | 0.00 | 0.00 | 0.00 | 60 | 849.6 | |
| 20260503182528 | 79 | 0.0 | 0.0 | 0.00 | 0.00 | 0.00 | 57 | 849.6 | |
| 20260503182028 | 79 | 0.0 | 0.0 | 0.00 | 0.00 | 0.00 | 58 | 849.7 | |
| 20260503181528 | 79 | 0.0 | 0.0 | 0.00 | 0.00 | 0.00 | 57 | 849.8 | |
| 20260503181031 | 79 | 0.0 | 0.0 | 0.00 | 0.00 | 0.00 | 58 | 849.9 | |
| 20260503180528 | 79 | 0.0 | 0.0 | 0.00 | 0.00 | 0.00 | 59 | 849.9 | |
| 20260503180031 | 79 | 0.0 | 0.0 | 0.00 | 0.00 | 0.00 | 58 | 850.0 | |
| 20260503175527 | 79 | 0.0 | 0.0 | 0.00 | 0.00 | 0.00 | 59 | 850.1 | |
| 20260503175029 | 79 | 0.0 | 0.0 | 0.00 | 0.00 | 0.00 | 61 | 850.2 | |
| 20260503174527 | 79 | 0.0 | 0.0 | 0.00 | 0.00 | 0.00 | 60 | 850.3 | |
| 20260503174027 | 79 | 0.0 | 0.0 | 0.00 | 0.00 | 0.00 | 61 | 850.4 | |
| 20260503173527 | 79 | 0.0 | 0.0 | 0.00 | 0.00 | 0.00 | 61 | 850.6 | |
| 20260503173027 | 79 | 0.0 | 0.0 | 0.00 | 0.00 | 0.00 | 64 | 850.7 | |
| 20260503172526 | 79 | 0.0 | 0.0 | 0.00 | 0.00 | 0.00 | 62 | 850.8 | |
| 20260503172027 | 79 | 0.0 | 0.0 | 0.00 | 0.00 | 0.00 | 63 | 851.0 | |
| 20260503171526 | 78 | 0.0 | 0.0 | 0.00 | 0.00 | 0.00 | 64 | 851.2 | |
| 20260503171026 | 78 | 0.0 | 0.0 | 0.00 | 0.00 | 0.00 | 62 | 851.3 | |
| 20260503170526 | 78 | 0.0 | 0.0 | 0.00 | 0.00 | 0.00 | 61 | 851.4 | |
| 20260503150522 | 76 | 0.0 | 0.0 | 0.00 | 0.00 | 0.00 | 75 | 852.8 |